[[{"header":{"parameterUnit":"m.s-1","parameterCategory":1,"la1":30.2991,"la2":30.254,"lo1":-89.0895,"lo2":-89.0444,"dy":0.0017,"dx":0.0017,"nx":28,"ny":28,"refTime":"2025-05-19T09:00:00:Z","depth":0,"parameterNumber":2,"parameterNumberName":"U-component_of_WINDS"},"data":[0,0,0,0,0,0,0,0,0,0,0,0,0,0,0,0,0,0,0,0,0,0,0,0,0,0,0,0,0,0,0,0,0,0,0,0,0,0,0,0,0,0,0,0,0,0,0,0,0,0,0,0,0,0,0,0,0,0,-2.2661,-2.2661,0,-2.2656,-2.2656,-2.2656,-2.2631,-2.263,-2.263,-2.2629,-2.2625,-2.2626,-2.2626,0,0,0,0,0,0,0,0,0,0,0,0,0,-2.265,-2.265,-2.2661,-2.2661,-2.266,-2.2656,-2.2656,-2.2656,-2.2631,-2.263,-2.2629,-2.2629,-2.2625,-2.2626,-2.2626,0,0,0,0,0,0,0,0,0,0,0,0,0,-2.2651,-2.265,-2.2661,-2.2647,-2.2646,-2.2656,-2.2656,-2.2656,-2.2631,-2.263,-2.2629,-2.2628,-2.2625,-2.2626,-2.2626,-2.2648,0,0,-2.2628,-2.2629,0,0,0,0,0,0,0,0,-2.2651,-2.2651,-2.2649,-2.2648,-2.2647,-2.2643,-2.2651,-2.2653,-2.2631,-2.2637,-2.2629,-2.2628,-2.2632,-2.2632,-2.2633,-2.2648,-2.2648,-2.2628,-2.2629,-2.2629,-2.2629,0,0,0,0,0,0,0,-2.2651,-2.2651,-2.2659,-2.2649,-2.2648,-2.2642,-2.2642,-2.2651,-2.264,-2.2636,-2.2634,-2.2634,-2.2631,-2.2633,-2.2633,-2.2648,-2.2628,-2.2629,-2.2629,-2.263,-2.2681,-2.2682,0,0,0,0,0,0,-2.2652,-2.2651,-2.2659,-2.2659,-2.2647,-2.2643,-2.2642,-2.2645,-2.2639,-2.2638,-2.2635,-2.2633,-2.2632,-2.2632,-2.2633,-2.2657,-2.2629,-2.263,-2.263,-2.268,-2.2681,-2.2682,0,0,0,0,0,0,-2.2652,-2.2653,-2.2659,-2.2654,-2.2655,-2.2644,-2.2648,-2.2646,-2.2647,-2.2638,-2.2636,-2.2638,-2.2631,-2.2632,-2.2644,-2.2657,-2.263,-2.2631,-2.2679,-2.268,-2.2681,-2.2707,0,0,0,0,0,0,-2.2652,-2.2653,-2.2661,-2.2655,-2.2655,-2.267,-2.2649,-2.2646,-2.2648,-2.2645,-2.2641,-2.2639,-2.263,-2.2644,-2.2645,-2.2657,-2.2631,-2.2677,-2.2679,-2.2681,-2.2705,-2.2709,-2.2713,0,0,0,0,0,-2.2652,-2.2669,-2.2662,-2.2663,-2.2665,-2.2671,-2.2671,-2.266,-2.2649,-2.2657,-2.2652,-2.2639,-2.2656,-2.2645,-2.2647,-2.2659,-2.2677,-2.2679,-2.2681,-2.2703,-2.2708,-2.2712,0,0,0,0,0,0,-2.2677,-2.2668,-2.266,-2.2675,-2.2674,-2.2667,-2.2676,-2.2666,-2.2669,-2.2666,-2.2653,-2.2652,-2.2667,-2.2665,-2.2653,-2.268,-2.2664,-2.2667,-2.268,-2.2685,-2.2689,-2.2688,-2.2632,0,0,0,0,0,-2.2685,-2.269,-2.2682,-2.2697,-2.2696,-2.2687,-2.2689,-2.2681,-2.268,-2.2679,-2.2675,-2.2674,-2.2679,-2.2682,-2.2686,-2.2705,-2.2704,-2.2715,-2.2719,-2.2722,-2.2723,-2.2733,-2.2737,-2.2689,-2.2689,-2.2689,0,0,-2.27,-2.2695,-2.27,-2.2702,-2.27,-2.2706,-2.2686,-2.2694,-2.2699,-2.268,-2.2691,-2.2689,-2.2687,-2.2703,-2.271,-2.2701,-2.2737,-2.2724,-2.2727,-2.2727,-2.2735,-2.274,-2.2744,-2.269,-2.269,-2.269,0,0,-2.273,-2.2728,-2.2739,-2.2738,-2.2736,-2.2729,-2.2732,-2.2727,-2.2724,-2.2735,-2.2721,-2.2727,-2.2736,-2.2735,-2.2736,-2.2768,-2.2756,-2.277,-2.2789,-2.2798,-2.2802,-2.2805,-2.2815,-2.2819,-2.2772,-2.2772,-2.2772,0,-2.2749,-2.2758,-2.2747,-2.2755,-2.2756,-2.274,-2.2751,-2.2751,-2.275,-2.2752,-2.2743,-2.2753,-2.2751,-2.2766,-2.2774,-2.2776,-2.2778,-2.2769,-2.2802,-2.2805,-2.2808,-2.2817,-2.2821,-2.2774,-2.2773,-2.2773,-2.2773,0,-2.2781,-2.2788,-2.2797,-2.2796,-2.2799,-2.2809,-2.2799,-2.2803,-2.2796,-2.279,-2.2802,-2.2799,-2.2802,-2.2806,-2.2799,-2.282,-2.2815,-2.2804,-2.2788,-2.2814,-2.2823,-2.2826,-2.2776,-2.2775,-2.2775,-2.2774,0,0,-2.2826,-2.2819,-2.2822,-2.2822,-2.2818,-2.2823,-2.2833,-2.2835,-2.2839,-2.284,-2.2847,-2.2855,-2.2846,-2.2847,-2.2839,-2.2848,-2.2871,-2.2836,-2.2836,-2.2841,-2.2894,-2.29,-2.2904,-2.2865,-2.2866,-2.2866,-2.2893,0,-2.2854,-2.2868,-2.2859,-2.2876,-2.2881,-2.2867,-2.2875,-2.2874,-2.287,-2.2875,-2.2871,-2.2876,-2.2863,-2.2864,-2.2872,-2.2867,-2.2881,-2.2865,-2.2871,-2.2871,-2.287,-2.2909,-2.2916,-2.2942,-2.2897,-2.2897,-2.2898,0,-2.2888,-2.2889,-2.2906,-2.2901,-2.2903,-2.2911,-2.2912,-2.2917,-2.2916,-2.2913,-2.2914,-2.2905,-2.2915,-2.29,-2.2913,-2.2902,-2.2904,-2.2902,-2.2903,-2.2902,-2.2885,-2.2907,-2.295,-2.2953,-2.2903,-2.2903,-2.2902,0,-2.2916,-2.2923,-2.2934,-2.2934,-2.2929,-2.2935,-2.2933,-2.2931,-2.2934,-2.2936,-2.2937,-2.294,-2.2942,-2.2945,-2.2937,-2.2927,-2.295,-2.2935,-2.2947,-2.2947,-2.2951,-2.295,-2.2993,-2.2956,-2.2956,-2.2956,-2.2956,0,-2.2947,-2.2958,-2.2946,-2.2953,-2.2965,-2.2955,-2.2967,-2.2964,-2.2962,-2.2968,-2.2957,-2.2963,-2.2953,-2.2958,-2.2952,-2.2963,-2.2964,-2.2961,-2.2959,-2.2961,-2.2961,-2.2961,-2.2958,-2.2957,-2.2956,-2.2956,-2.2956,0,-2.2981,-2.2973,-2.2984,-2.2979,-2.2978,-2.2987,-2.2982,-2.2988,-2.2984,-2.2992,-2.2993,-2.2986,-2.2991,-2.2984,-2.299,-2.2986,-2.3,-2.2996,-2.3,-2.2998,-2.301,-2.3008,-2.3052,-2.3057,-2.3018,-2.3019,-2.3019,0,-2.3,-2.3008,-2.3003,-2.3006,-2.3005,-2.301,-2.3012,-2.3003,-2.3006,-2.3006,-2.3012,-2.3016,-2.3019,-2.3029,-2.3024,-2.3028,-2.3023,-2.3038,-2.3023,-2.3025,-2.3021,-2.302,-2.3021,-2.304,-2.3041,-2.3041,-2.3042,0,-2.3034,-2.3031,-2.3034,-2.3036,-2.3039,-2.304,-2.304,-2.3044,-2.3034,-2.3038,-2.3043,-2.3045,-2.305,-2.3055,-2.3057,-2.3056,-2.3047,-2.3047,-2.3049,-2.305,-2.3051,-2.3049,-2.3006,-2.3045,-2.3045,-2.3045,-2.3044,-2.3044,-2.306,-2.3066,-2.3064,-2.3068,-2.3067,-2.3068,-2.3073,-2.307,-2.3074,-2.3076,-2.3071,-2.3078,-2.3077,-2.308,-2.308,-2.3085,-2.3078,-2.3082,-2.3083,-2.3084,-2.3085,-2.3052,-2.3085,-2.3085,-2.3085,-2.3085,-2.3085,0,-2.3093,-2.3091,-2.3095,-2.3095,-2.3099,-2.3091,-2.3091,-2.3094,-2.31,-2.31,-2.3103,-2.3109,-2.3113,-2.3109,-2.3113,-2.3118,-2.3114,-2.3119,-2.3117,-2.3117,-2.3091,-2.3088,-2.3122,-2.3122,-2.3122,-2.3122,-2.3122,-2.3122,-2.311,-2.3119,-2.3115,-2.3124,-2.3123,-2.3128,-2.3129,-2.313,-2.313,-2.3137,-2.314,-2.3138,-2.3136,-2.314,-2.3143,-2.3142,-2.3143,-2.315,-2.3147,-2.3123,-2.3119,-2.3115,-2.3112,-2.3151,-2.3151,-2.3172,-2.3172,-2.3173]},{"header":{"parameterUnit":"m.s-1","parameterCategory":1,"la1":30.2991,"la2":30.254,"lo1":-89.0895,"lo2":-89.0444,"dy":0.0017,"dx":0.0017,"nx":28,"ny":28,"refTime":"2025-05-19T09:00:00:Z","depth":0,"parameterNumber":3,"parameterNumberName":"V-component_of_WINDS"},"data":[0,0,0,0,0,0,0,0,0,0,0,0,0,0,0,0,0,0,0,0,0,0,0,0,0,0,0,0,0,0,0,0,0,0,0,0,0,0,0,0,0,0,0,0,0,0,0,0,0,0,0,0,0,0,0,0,0,0,4.474,4.4741,0,4.4841,4.4842,4.4843,4.4881,4.488,4.488,4.488,4.498,4.4982,4.4985,0,0,0,0,0,0,0,0,0,0,0,0,0,4.4573,4.4576,4.4739,4.4741,4.4742,4.4841,4.4842,4.4844,4.4881,4.488,4.488,4.4879,4.4979,4.4982,4.4986,0,0,0,0,0,0,0,0,0,0,0,0,0,4.4657,4.4577,4.4739,4.4773,4.4777,4.4841,4.4842,4.4844,4.4881,4.488,4.488,4.4879,4.4977,4.4982,4.4986,4.5023,0,0,4.5,4.5002,0,0,0,0,0,0,0,0,4.4652,4.4663,4.4766,4.477,4.4775,4.4848,4.482,4.4904,4.4881,4.4841,4.488,4.4879,4.4936,4.4944,4.4964,4.5028,4.5032,4.5,4.5003,4.5005,4.5006,0,0,0,0,0,0,0,4.4646,4.4659,4.478,4.4768,4.4773,4.4781,4.4792,4.4836,4.489,4.4844,4.4847,4.4859,4.4938,4.4959,4.4966,4.5034,4.5,4.5004,4.5007,4.5008,4.5132,4.5133,0,0,0,0,0,0,4.4635,4.4654,4.4776,4.4783,4.4711,4.4784,4.4797,4.4825,4.4889,4.4899,4.4859,4.486,4.4952,4.4961,4.497,4.5018,4.5005,4.5009,4.5011,4.5132,4.5133,4.5133,0,0,0,0,0,0,4.4632,4.4646,4.4772,4.4719,4.4736,4.4788,4.4819,4.4827,4.4849,4.4901,4.491,4.4872,4.4952,4.4964,4.501,4.5022,4.5011,4.5015,4.5131,4.5132,4.5133,4.5114,0,0,0,0,0,0,4.4627,4.4644,4.4661,4.4719,4.4738,4.4812,4.4819,4.4829,4.4856,4.4859,4.4915,4.4924,4.4952,4.5003,4.5014,4.5028,4.5018,4.513,4.5132,4.5133,4.5114,4.5115,4.5115,0,0,0,0,0,4.4621,4.4651,4.4661,4.4676,4.476,4.4813,4.4824,4.4858,4.4857,4.4873,4.4906,4.4922,4.5018,4.5007,4.502,4.5036,4.513,4.5131,4.5133,4.5114,4.5115,4.5115,0,0,0,0,0,0,4.4591,4.4659,4.4672,4.4722,4.4761,4.4819,4.4841,4.4857,4.4897,4.4897,4.4936,4.4948,4.4991,4.5017,4.5004,4.5074,4.5075,4.5079,4.5056,4.5057,4.5057,4.5051,4.5022,0,0,0,0,0,4.4591,4.463,4.4686,4.4724,4.4744,4.4788,4.4813,4.4835,4.4877,4.4894,4.4931,4.497,4.5009,4.5034,4.5073,4.5117,4.513,4.5134,4.5134,4.5134,4.5138,4.5163,4.5165,4.5138,4.5138,4.5138,0,0,4.459,4.4632,4.4654,4.472,4.4753,4.4791,4.4802,4.4842,4.4871,4.49,4.4947,4.4974,4.502,4.5065,4.5087,4.5089,4.5147,4.5136,4.5135,4.5139,4.5164,4.5167,4.5169,4.5139,4.5139,4.5139,0,0,4.4609,4.4644,4.4681,4.4713,4.4764,4.4793,4.4801,4.4856,4.4877,4.4924,4.4946,4.4979,4.5046,4.5078,4.5102,4.513,4.5146,4.5141,4.5144,4.5168,4.517,4.5172,4.5183,4.5186,4.5144,4.5144,4.5144,0,4.4602,4.4662,4.4696,4.4736,4.4763,4.4791,4.4828,4.4857,4.4917,4.4935,4.4936,4.502,4.5053,4.5106,4.5112,4.5131,4.5141,4.5137,4.5167,4.517,4.5172,4.5183,4.5187,4.5143,4.5144,4.5144,4.5144,0,4.465,4.4691,4.4714,4.4772,4.4802,4.4839,4.4878,4.4904,4.4923,4.4951,4.4998,4.5038,4.5085,4.5099,4.5117,4.5154,4.5153,4.516,4.5162,4.5174,4.5184,4.5188,4.5142,4.5143,4.5143,4.5143,0,0,4.4657,4.4733,4.4741,4.4767,4.4824,4.4855,4.4892,4.494,4.4961,4.5,4.5032,4.5087,4.5093,4.5121,4.5142,4.5163,4.5183,4.5167,4.5169,4.517,4.5226,4.5222,4.5227,4.5192,4.5193,4.5194,4.5223,0,4.4684,4.4755,4.4786,4.4841,4.4879,4.4905,4.4937,4.4974,4.5,4.5035,4.5063,4.5102,4.5106,4.5124,4.5145,4.5176,4.5195,4.5174,4.5222,4.5223,4.5212,4.5232,4.5229,4.5255,4.5227,4.5228,4.5228,0,4.4727,4.4768,4.4827,4.4878,4.4895,4.4924,4.4969,4.5002,4.5043,4.5061,4.5091,4.5111,4.515,4.5146,4.5199,4.5184,4.5205,4.5222,4.5224,4.5232,4.5228,4.5242,4.5263,4.5268,4.5235,4.5234,4.5234,0,4.4728,4.4796,4.4841,4.4863,4.4923,4.4943,4.4968,4.5009,4.5035,4.5073,4.509,4.5132,4.5155,4.5186,4.5216,4.5211,4.5266,4.5265,4.5281,4.5281,4.5294,4.5293,4.5321,4.5304,4.5304,4.5304,4.5303,0,4.4757,4.4793,4.4842,4.487,4.491,4.4944,4.4982,4.5009,4.5045,4.5077,4.51,4.5129,4.5166,4.5199,4.5222,4.5263,4.5272,4.5287,4.5294,4.5287,4.5285,4.5303,4.5303,4.5305,4.5304,4.5304,4.5304,0,4.4766,4.4801,4.4851,4.4903,4.4917,4.4944,4.4989,4.5015,4.5041,4.5082,4.5093,4.5134,4.5174,4.5207,4.5259,4.5274,4.5317,4.5323,4.5304,4.5307,4.5322,4.5321,4.5365,4.5372,4.5347,4.5347,4.5348,0,4.4784,4.4812,4.4867,4.4891,4.4917,4.4954,4.4981,4.5013,4.504,4.5088,4.5109,4.515,4.5186,4.5249,4.5283,4.5322,4.533,4.5342,4.5337,4.5329,4.5332,4.5331,4.5334,4.5344,4.5344,4.5344,4.5344,0,4.4812,4.4827,4.4866,4.4909,4.494,4.4976,4.5012,4.5029,4.5068,4.5096,4.5138,4.5166,4.5219,4.526,4.5303,4.5327,4.5342,4.5345,4.5352,4.5346,4.5335,4.5343,4.5308,4.5345,4.5345,4.5345,4.5345,4.5345,4.4828,4.4854,4.4896,4.4938,4.4968,4.5,4.5028,4.5058,4.5094,4.5141,4.5156,4.52,4.5238,4.5297,4.5321,4.5354,4.5356,4.5364,4.5367,4.5369,4.5369,4.5327,4.5362,4.5362,4.5362,4.5362,4.5362,0,4.4859,4.4887,4.4924,4.4974,4.5006,4.5016,4.5056,4.5082,4.512,4.5155,4.5189,4.5236,4.5276,4.5311,4.5352,4.5371,4.5379,4.5381,4.5381,4.5387,4.5365,4.5357,4.5374,4.5374,4.5374,4.5374,4.5374,4.5374,4.4879,4.4924,4.4943,4.5002,4.503,4.5073,4.5095,4.5124,4.5153,4.5205,4.5238,4.5261,4.5296,4.5339,4.5375,4.5384,4.5399,4.5399,4.541,4.539,4.5388,4.5387,4.5379,4.5401,4.5402,4.543,4.543,4.543]}]]